Showing default

COSMOS 2576, 59773

Orbit data source: Space-Track

COSMOS 2576, 59773 is a payload satellite owned by TS VS RF (CIS) in SSO that was launched on Thu, 16 May 2024 UTC via a SOYUZ-2-1B launch vehicle from the Plesetsk Missile And Space Complex (PKMTR). Payload-class satellites include a variety of spacecraft equipped with specific instruments for various scientific and technological missions. These include communications satellites like Starlink; space stations such as the ISS; scientific satellites like the Hubble; Earth observation satellites from companies like Planet Labs, Umbra, and HawkEye 360; GPS; miniature CubeSats for education and research; and military/defense satellites.

Loading next visibility...
Identifier
59773, 2024-092A
Orbit
SSO
Country
Flag of CISCIS
Related business
Manufacturer
Lavochkin
Mission
Operational Defense Imaging
Bus & Motor
KARAT-200, Unknown motor
Mass
~500 kg wet, ~500 kg dry
Launch date (UTC)
2024-05-16 (2 years ago)
Launch vehicle
SOYUZ-2-1B
Launch site
Plesetsk Missile And Space Complex (PKMTR)
Object type
Payload
Rocket body
Debris
Shape & HBR
Cyl + 2 Pan, 1.5 m
Radar Cross Section
3.727 m², Large (>1 m²)

Expand to show TLE details & history
Last TLE update: 21 hours ago

TLE from 21 hours ago
0 COSMOS 2576
1 59773U 24092A   26149.74836983  .00009258  00000-0  43563-3 0  9996
2 59773  97.4367 265.9841 0014145  79.8121 280.4709 15.19684519113584
Epoch: 2026-05-29T17:57Z
TLE epoch observation values (Epoch: 2026-05-29T17:57:39.153Z)
Latitude
0.00004°
Longitude
109.29666°
Altitude
508.125 km
Speed
7.611 km/s
True Right ascension
17h 43m 56s
True Declination
0° 00' 00"
Sunlit
Object was in full shadow at epoch
Visualization orbit readout
Latitude
Unknown
Longitude
Unknown
Altitude
Unknown
Speed
Unknown
Apparent Right ascension
Unknown
Apparent Declination
Unknown
Sunlit
N/A
Visualization observer readout
Local Sidereal Time
00:03:24
Azimuth
Unknown
Elevation
Unknown
Doppler factor
Unknown
Orbital elements
Apogee altitude
513.495 km
Perigee altitude
494.026 km
Semi-major axis
6,881.898 km
Eccentricity
0.00141
Inclination
97.4367°
RAAN
265.9841°
Arg. of periapsis
79.8121°
True anomaly
280.31146°
Mean anomaly
280.4709°
Eccentric anomaly
280.39118°
Mean motion
3.80173 °/min
Orbital period
94.69 mins
BSTAR
0.00043563
Loading maneuver chart data...
Computing Atmospheric mass density...
Loading historical data...
Loading historical data...
Loading historical data...
Loading historical data...
Loading historical data...
Loading historical data...
Loading historical data...

Documentation

Showing up to 5 results
|